This is the latest recevied weather packets stored in our database for station/object AA4XD. If no packets are shown the sender has not sent any weather packets the latest 10 day(s).
| Time | Temp. | Humidity | Pressure | Rain* | Wind** | Luminosity | Snow |
|---|---|---|---|---|---|---|---|
| 1777410832 | 33.33° C | 40% | 1015.9 hPa | 0 mm | - | 461 W/m² | - |
| 1777410531 | 33.89° C | 38% | 1015.8 hPa | 0 mm | - | 628 W/m² | - |
| 1777410231 | 34.44° C | 38% | 1016 hPa | 0 mm | - | 414 W/m² | - |
| 1777409926 | 33.89° C | 37% | 1015.9 hPa | 0 mm | - | 673 W/m² | - |
| 1777409621 | 33.89° C | 38% | 1016 hPa | 0 mm | - | 659 W/m² | - |
| 1777409317 | 33.33° C | 37% | 1016.2 hPa | 0 mm | - | 695 W/m² | - |
| 1777409008 | 33.33° C | 38% | 1016.4 hPa | 0 mm | - | 727 W/m² | - |
| 1777408705 | 33.33° C | 38% | 1016.4 hPa | 0 mm | - | 758 W/m² | - |
| 1777408400 | 32.78° C | 40% | 1016.5 hPa | 0 mm | - | 802 W/m² | - |
| 1777408095 | 32.22° C | 41% | 1016.5 hPa | 0 mm | - | 190 W/m² | - |
| 1777407791 | 32.78° C | 39% | 1016.4 hPa | 0 mm | - | 159 W/m² | - |
| 1777407486 | 32.78° C | 40% | 1016.7 hPa | 0 mm | - | 823 W/m² | - |
| 1777407181 | 32.78° C | 39% | 1016.9 hPa | 0 mm | - | 798 W/m² | - |
| 1777406876 | 32.22° C | 40% | 1017 hPa | 0 mm | - | 140 W/m² | - |
| 1777406572 | 32.78° C | 41% | 1016.9 hPa | 0 mm | - | 809 W/m² | - |
| 1777406268 | 32.22° C | 43% | 1017 hPa | 0 mm | - | 832 W/m² | - |
| 1777405966 | 31.67° C | 43% | 1017 hPa | 0 mm | - | 817 W/m² | - |
| 1777405663 | 32.78° C | 42% | 1017.1 hPa | 0 mm | - | 123 W/m² | - |
| 1777405360 | 33.89° C | 39% | 1017.2 hPa | 0 mm | - | 886 W/m² | - |
| 1777405057 | 32.78° C | 41% | 1017.1 hPa | 0 mm | - | 884 W/m² | - |
| 1777404757 | 31.67° C | 42% | 1017.4 hPa | 0 mm | - | 202 W/m² | - |
| 1777404453 | 32.78° C | 42% | 1017.3 hPa | 0 mm | - | 154 W/m² | - |
| 1777404149 | 32.22° C | 40% | 1017.3 hPa | 0 mm | - | 919 W/m² | - |
| 1777403845 | 31.67° C | 40% | 1017.8 hPa | 0 mm | - | 176 W/m² | - |
| 1777403541 | 31.67° C | 42% | 1017.7 hPa | 0 mm | - | 976 W/m² | - |
* Rain latest hour (hover to see other rain measurements)
** Current wind speed in m/s (hover to see current wind gust speed)